RYR7DE LIEO-LIPE

Flight info

Callsign RYR7DE
Flight time 0h 38m
Altitude 30000
Route OLBEK DCT IBROS DCT NEMIT DCT ELB DCT MAREL DCT GINAR/N0328F180 L12 LOMED
Aircraft B38M/M-SADE3FGILRWY/SB1

Departure

Time 2026-05-07 18:01
Airport Olbia Costa Smeralda Airport (LIEO)

Arrival

Time 2026-05-07 18:40
Airport Bologna Guglielmo Marconi Airport (LIPE)
Time Latitude Longitude Altitude Speed Heading
2026-05-07 17:38 40.90387 9.51894 37 ft 0 kts
2026-05-07 17:55 40.90389 9.51895 34 ft 1 kts
2026-05-07 17:55 40.90399 9.51906 36 ft 3 kts 59°
2026-05-07 17:55 40.90393 9.51931 36 ft 3 kts 135°
2026-05-07 17:55 40.90366 9.51952 37 ft 5 kts 164°
2026-05-07 17:56 40.90334 9.51950 37 ft 4 kts 206°
2026-05-07 17:56 40.90315 9.51925 36 ft 4 kts 229°
2026-05-07 17:56 40.90293 9.51885 37 ft 6 kts 235°
2026-05-07 17:56 40.90264 9.51829 38 ft 8 kts 235°
2026-05-07 17:57 40.90212 9.51813 36 ft 9 kts 141°
2026-05-07 17:57 40.90188 9.51861 38 ft 10 kts 115°
2026-05-07 17:57 40.90114 9.51845 38 ft 11 kts 233°
2026-05-07 17:57 40.90069 9.51754 39 ft 13 kts 236°
2026-05-07 17:58 40.90017 9.51650 40 ft 14 kts 233°
2026-05-07 17:58 40.89955 9.51538 40 ft 16 kts 235°
2026-05-07 17:58 40.89887 9.51412 41 ft 18 kts 234°
2026-05-07 17:58 40.89814 9.51273 41 ft 19 kts 236°
2026-05-07 17:59 40.89735 9.51119 44 ft 21 kts 235°
2026-05-07 17:59 40.89648 9.50956 45 ft 23 kts 234°
2026-05-07 17:59 40.89558 9.50782 44 ft 24 kts 237°
2026-05-07 17:59 40.89461 9.50596 47 ft 25 kts 234°
2026-05-07 18:00 40.89378 9.50454 45 ft 15 kts 211°
2026-05-07 18:00 40.89284 9.50486 49 ft 16 kts 120°
2026-05-07 18:00 40.89282 9.50649 47 ft 28 kts 59°
2026-05-07 18:00 40.89546 9.51151 44 ft 103 kts 55°
2026-05-07 18:01 40.90064 9.52150 118 ft 149 kts 56°
2026-05-07 18:01 40.90627 9.53312 787 ft 151 kts 58°
2026-05-07 18:01 40.91244 9.54542 1296 ft 170 kts 55°
2026-05-07 18:01 40.91930 9.55805 2004 ft 177 kts 55°
2026-05-07 18:02 40.93569 9.58847 2964 ft 227 kts 55°
2026-05-07 18:02 40.94505 9.60591 3625 ft 241 kts 55°
2026-05-07 18:02 40.95469 9.62387 4649 ft 240 kts 55°
2026-05-07 18:03 40.96444 9.64208 5548 ft 245 kts 56°
2026-05-07 18:03 40.97438 9.66064 6435 ft 249 kts 56°
2026-05-07 18:03 40.98551 9.67876 7102 ft 263 kts 40°
2026-05-07 18:03 41.00195 9.69116 7607 ft 281 kts 26°
2026-05-07 18:04 41.01975 9.70252 8374 ft 285 kts 27°
2026-05-07 18:04 41.03774 9.71398 9130 ft 290 kts 27°
2026-05-07 18:04 41.05585 9.72546 9875 ft 294 kts 27°
2026-05-07 18:04 41.07449 9.73723 10524 ft 299 kts 27°
2026-05-07 18:05 41.09339 9.74916 11158 ft 303 kts 26°
2026-05-07 18:05 41.11250 9.76122 11780 ft 306 kts 26°
2026-05-07 18:05 41.13181 9.77342 12359 ft 309 kts 26°
2026-05-07 18:05 41.15132 9.78575 12915 ft 312 kts 26°
2026-05-07 18:06 41.17103 9.79821 13467 ft 315 kts 26°
2026-05-07 18:06 41.19094 9.81082 13977 ft 318 kts 25°
2026-05-07 18:06 41.21075 9.82336 14411 ft 322 kts 25°
2026-05-07 18:06 41.23144 9.83647 14827 ft 337 kts 25°
2026-05-07 18:07 41.25304 9.85014 15308 ft 350 kts 24°
2026-05-07 18:07 41.27623 9.86032 16012 ft 352 kts 14°
2026-05-07 18:07 41.30008 9.86875 16677 ft 359 kts 14°
2026-05-07 18:07 41.32435 9.87744 17362 ft 363 kts 14°
2026-05-07 18:08 41.34887 9.88626 18030 ft 368 kts 13°
2026-05-07 18:08 41.37372 9.89520 18650 ft 372 kts 13°
2026-05-07 18:08 41.39878 9.90424 19260 ft 374 kts 13°
2026-05-07 18:08 41.42365 9.91322 19859 ft 377 kts 13°
2026-05-07 18:09 41.44900 9.92238 20455 ft 379 kts 12°
2026-05-07 18:09 41.47457 9.93163 21046 ft 382 kts 12°
2026-05-07 18:09 41.50025 9.94093 21634 ft 384 kts 12°
2026-05-07 18:09 41.52617 9.95031 22220 ft 387 kts 12°
2026-05-07 18:10 41.55224 9.95976 22801 ft 390 kts 12°
2026-05-07 18:10 41.57849 9.96928 23394 ft 392 kts 11°
2026-05-07 18:10 41.60491 9.97888 23895 ft 395 kts 11°
2026-05-07 18:10 41.63116 9.98843 24328 ft 399 kts 11°
2026-05-07 18:11 41.65805 9.99821 24764 ft 403 kts 11°
2026-05-07 18:11 41.67638 10.00488 25051 ft 405 kts 11°
2026-05-07 18:11 41.71265 10.01810 25609 ft 410 kts 11°
2026-05-07 18:11 41.74029 10.02818 26021 ft 414 kts 11°
2026-05-07 18:12 41.76824 10.03838 26444 ft 418 kts 10°
2026-05-07 18:12 41.79639 10.04866 26851 ft 421 kts 10°
2026-05-07 18:12 41.82480 10.05905 27253 ft 425 kts 10°
2026-05-07 18:12 41.85345 10.06954 27648 ft 428 kts 10°
2026-05-07 18:13 41.88229 10.08011 28035 ft 432 kts 10°
2026-05-07 18:13 41.91137 10.09077 28418 ft 435 kts 10°
2026-05-07 18:13 41.94032 10.10140 28785 ft 439 kts 10°
2026-05-07 18:13 41.96987 10.11226 29175 ft 442 kts
2026-05-07 18:14 41.99962 10.12320 29583 ft 444 kts
2026-05-07 18:14 42.02949 10.13420 29950 ft 447 kts
2026-05-07 18:14 42.05964 10.14530 30263 ft 450 kts
2026-05-07 18:14 42.08992 10.15648 30579 ft 453 kts
2026-05-07 18:15 42.12037 10.16773 30885 ft 456 kts
2026-05-07 18:15 42.15104 10.17906 31173 ft 458 kts
2026-05-07 18:15 42.18191 10.19047 31488 ft 461 kts
2026-05-07 18:15 42.21245 10.20179 31803 ft 463 kts
2026-05-07 18:16 42.24362 10.21335 32088 ft 465 kts
2026-05-07 18:16 42.27488 10.22495 32410 ft 467 kts
2026-05-07 18:16 42.30631 10.23663 32680 ft 470 kts
2026-05-07 18:16 42.33787 10.24836 32961 ft 472 kts
2026-05-07 18:17 42.36962 10.26020 33235 ft 475 kts
2026-05-07 18:17 42.40155 10.27212 33506 ft 477 kts
2026-05-07 18:17 42.43363 10.28410 33835 ft 478 kts
2026-05-07 18:17 42.46569 10.29610 34170 ft 478 kts
2026-05-07 18:18 42.49735 10.30796 34473 ft 479 kts
2026-05-07 18:18 42.52944 10.31999 34793 ft 478 kts
2026-05-07 18:18 42.56154 10.33203 35122 ft 478 kts
2026-05-07 18:18 42.59353 10.34404 35430 ft 478 kts
2026-05-07 18:19 42.62557 10.35610 35726 ft 478 kts
2026-05-07 18:19 42.65763 10.36817 35967 ft 479 kts
2026-05-07 18:19 42.68989 10.38032 35998 ft 483 kts
2026-05-07 18:20 42.75421 10.40747 35980 ft 490 kts 12°
2026-05-07 18:20 42.81857 10.43746 35975 ft 487 kts 12°
2026-05-07 18:21 42.88281 10.46694 35981 ft 487 kts 12°
2026-05-07 18:21 42.94710 10.49647 35980 ft 488 kts 12°
2026-05-07 18:21 42.97920 10.51123 35298 ft 489 kts 12°
2026-05-07 18:22 43.01147 10.52608 34061 ft 503 kts 12°
2026-05-07 18:22 43.03377 10.53638 33717 ft 498 kts 12°
2026-05-07 18:22 43.07705 10.55636 32707 ft 496 kts 12°
2026-05-07 18:22 43.10992 10.57156 31626 ft 502 kts 12°
2026-05-07 18:23 43.14294 10.58685 30923 ft 498 kts 12°
2026-05-07 18:23 43.17568 10.60199 30148 ft 496 kts 12°
2026-05-07 18:23 43.20839 10.61718 29220 ft 496 kts 12°
2026-05-07 18:23 43.24092 10.63228 28543 ft 490 kts 12°
2026-05-07 18:24 43.27299 10.64719 27947 ft 483 kts 13°
2026-05-07 18:24 43.30473 10.66203 27205 ft 480 kts 13°
2026-05-07 18:24 43.33617 10.67674 26663 ft 474 kts 13°
2026-05-07 18:24 43.36676 10.69106 26060 ft 469 kts 13°
2026-05-07 18:25 43.39757 10.70551 25434 ft 466 kts 14°
2026-05-07 18:25 43.42810 10.71983 24832 ft 461 kts 14°
2026-05-07 18:25 43.45833 10.73403 24240 ft 457 kts 14°
2026-05-07 18:25 43.48833 10.74813 23632 ft 454 kts 15°
2026-05-07 18:26 43.51813 10.76216 22931 ft 451 kts 15°
2026-05-07 18:26 43.54770 10.77609 22290 ft 446 kts 15°
2026-05-07 18:26 43.57686 10.78984 21720 ft 441 kts 15°
2026-05-07 18:26 43.60576 10.80349 21135 ft 437 kts 16°
2026-05-07 18:27 43.63436 10.81699 20539 ft 433 kts 16°
2026-05-07 18:27 43.66286 10.82741 19997 ft 425 kts
2026-05-07 18:27 43.69135 10.83549 19781 ft 413 kts
2026-05-07 18:27 43.70989 10.84103 19475 ft 410 kts
2026-05-07 18:28 43.74699 10.85241 18788 ft 407 kts 10°
2026-05-07 18:28 43.77450 10.86101 18253 ft 405 kts 11°
2026-05-07 18:28 43.80188 10.86961 17661 ft 402 kts 11°
2026-05-07 18:28 43.82908 10.87817 17114 ft 399 kts 11°
2026-05-07 18:29 43.85603 10.88667 16590 ft 396 kts 11°
2026-05-07 18:29 43.88281 10.89512 16079 ft 393 kts 11°
2026-05-07 18:29 43.90936 10.90350 15574 ft 390 kts 11°
2026-05-07 18:29 43.93572 10.91183 15065 ft 387 kts 11°
2026-05-07 18:30 43.96158 10.92002 14572 ft 385 kts 11°
2026-05-07 18:30 43.98759 10.92825 14086 ft 383 kts 11°
2026-05-07 18:30 44.01351 10.93647 13567 ft 381 kts 11°
2026-05-07 18:30 44.03930 10.94465 13027 ft 379 kts 11°
2026-05-07 18:31 44.06487 10.95277 12516 ft 375 kts 11°
2026-05-07 18:31 44.09020 10.96082 12087 ft 371 kts 12°
2026-05-07 18:31 44.11529 10.96880 11591 ft 369 kts 12°
2026-05-07 18:31 44.14024 10.97675 11111 ft 366 kts 11°
2026-05-07 18:32 44.16502 10.98465 10641 ft 364 kts 11°
2026-05-07 18:32 44.18931 10.99239 10168 ft 362 kts 11°
2026-05-07 18:32 44.21379 11.00021 9660 ft 360 kts 11°
2026-05-07 18:32 44.23809 11.00798 9145 ft 357 kts 12°
2026-05-07 18:33 44.26172 11.01554 8699 ft 340 kts 12°
2026-05-07 18:33 44.28422 11.02274 8267 ft 325 kts 12°
2026-05-07 18:33 44.30583 11.02966 7849 ft 312 kts 12°
2026-05-07 18:33 44.32659 11.03632 7459 ft 301 kts 12°
2026-05-07 18:34 44.34665 11.04275 7062 ft 290 kts 12°
2026-05-07 18:34 44.36602 11.04897 6692 ft 281 kts 12°
2026-05-07 18:34 44.38451 11.05490 6319 ft 272 kts 12°
2026-05-07 18:34 44.40271 11.06075 5940 ft 264 kts 12°
2026-05-07 18:35 44.42036 11.06643 5588 ft 257 kts 12°
2026-05-07 18:35 44.43769 11.07201 5252 ft 256 kts 12°
2026-05-07 18:35 44.45504 11.07760 4907 ft 257 kts 13°
2026-05-07 18:35 44.47253 11.08324 4531 ft 259 kts 13°
2026-05-07 18:36 44.49012 11.08891 4163 ft 260 kts 13°
2026-05-07 18:36 44.50781 11.09462 3791 ft 262 kts 14°
2026-05-07 18:36 44.52564 11.10037 3419 ft 264 kts 14°
2026-05-07 18:36 44.54334 11.10610 3013 ft 266 kts 15°
2026-05-07 18:37 44.55983 11.11708 2578 ft 261 kts 40°
2026-05-07 18:37 44.57091 11.13640 2213 ft 250 kts 66°
2026-05-07 18:37 44.57428 11.15898 2019 ft 228 kts 90°
2026-05-07 18:37 44.57259 11.18029 1703 ft 212 kts 102°
2026-05-07 18:38 44.56812 11.19866 1427 ft 185 kts 114°
2026-05-07 18:38 44.56251 11.21367 1173 ft 164 kts 118°
2026-05-07 18:38 44.55756 11.22704 920 ft 146 kts 115°
2026-05-07 18:38 44.55320 11.23956 681 ft 143 kts 115°
2026-05-07 18:39 44.54885 11.25183 524 ft 143 kts 116°
2026-05-07 18:39 44.54430 11.26418 369 ft 143 kts 116°
2026-05-07 18:39 44.53984 11.27648 202 ft 137 kts 115°
2026-05-07 18:39 44.53588 11.28751 136 ft 106 kts 117°
2026-05-07 18:40 44.53361 11.29379 139 ft 47 kts 116°
2026-05-07 18:40 44.53274 11.29592 137 ft 11 kts 142°
2026-05-07 18:40 44.53203 11.29649 138 ft 13 kts 151°
2026-05-07 18:40 44.53113 11.29725 134 ft 17 kts 145°
2026-05-07 18:41 44.53074 11.29763 133 ft 6 kts 146°
2026-05-07 18:41 44.53041 11.29791 133 ft 2 kts 160°
2026-05-07 18:41 44.53017 11.29796 134 ft 5 kts 182°
2026-05-07 18:41 44.52983 11.29777 134 ft 6 kts 229°
2026-05-07 18:42 44.52988 11.29722 134 ft 7 kts 295°
2026-05-07 18:42 44.53013 11.29653 135 ft 9 kts 297°
2026-05-07 18:42 44.53025 11.29614 135 ft 3 kts 278°
2026-05-07 18:42 44.53016 11.29591 136 ft 3 kts 225°
2026-05-07 18:43 44.52993 11.29571 136 ft 3 kts 208°
2026-05-07 18:43 44.52987 11.29566 136 ft 0 kts 209°